WXM80 ListenWXM80 Stop

You find our weather info also at:

UK Metoffice

WeatherCloud

Weather Underground

Northeastern Weather Network

AWEKAS

Citizen Weather Observer Program (CWOP)

HAMweather, WeatherForYou, PWS Weather


Weather Underground History page Text

Daily Summary for October 8, 2016 Units:  English    Metric   Both
« Previous Day
Next Day »
Daily Weekly Monthly Yearly Custom
  High: Low: Average:
Temperature: 70.5 °F 51.7 °F 61.8 °F
Dew Point: 66.8 °F 49.7 °F 59.8 °F
Humidity: 98 % 83 % 93 %
Wind Speed: 2.8 mph 0.0 mph 0.2 mph
Wind Gust: 5.0 mph - -
Wind:- - SE
Pressure: 30.16 in 29.95 in -
Precipitation: 0.14 in    
Historical Graphs
 
 
Tabular Data for October 8, 2016
Time Temperature Dew Point Pressure Wind Wind Speed Wind Gust Humidity Rainfall Rate (Hourly)
00:01 53.3 °F 50.7 °F 30.16 in Calm     91 % 0.00 in
00:06 53.2 °F 50.6 °F 30.16 in Calm     91 % 0.00 in
00:11 53.0 °F 50.4 °F 30.16 in Calm     91 % 0.00 in
00:16 53.0 °F 50.7 °F 30.15 in Calm     92 % 0.00 in
00:26 52.8 °F 50.5 °F 30.16 in Calm   1.2 mph 92 % 0.00 in
00:31 52.6 °F 50.3 °F 30.15 in Calm     92 % 0.00 in
00:36 52.6 °F 50.3 °F 30.15 in Calm     92 % 0.00 in
00:41 52.6 °F 50.3 °F 30.15 in Calm     92 % 0.00 in
00:47 52.5 °F 50.2 °F 30.15 in Calm     92 % 0.00 in
00:52 52.4 °F 50.1 °F 30.15 in Calm     92 % 0.00 in
00:57 52.4 °F 50.1 °F 30.14 in Calm     92 % 0.00 in
01:02 52.3 °F 50.0 °F 30.14 in Calm     92 % 0.00 in
01:07 52.2 °F 49.9 °F 30.14 in Calm     92 % 0.00 in
01:12 52.2 °F 49.9 °F 30.14 in Calm     92 % 0.00 in
01:17 52.1 °F 49.8 °F 30.14 in Calm     92 % 0.00 in
01:22 52.1 °F 49.8 °F 30.14 in Calm     92 % 0.00 in
01:27 52.0 °F 49.7 °F 30.14 in Calm     92 % 0.00 in
01:32 52.0 °F 49.7 °F 30.13 in Calm     92 % 0.00 in
01:38 52.0 °F 50.0 °F 30.13 in Calm     93 % 0.00 in
01:43 51.9 °F 49.9 °F 30.14 in Calm     93 % 0.00 in
01:48 52.0 °F 50.0 °F 30.14 in Calm     93 % 0.00 in
01:53 51.9 °F 49.9 °F 30.14 in Calm     93 % 0.00 in
01:58 51.9 °F 49.9 °F 30.14 in Calm     93 % 0.00 in
02:03 51.9 °F 49.9 °F 30.14 in SE 0.5 mph 1.2 mph 93 % 0.00 in
02:08 51.9 °F 49.9 °F 30.14 in Calm   1.2 mph 93 % 0.00 in
02:13 52.1 °F 50.4 °F 30.14 in Calm     94 % 0.00 in
02:18 52.2 °F 50.5 °F 30.13 in Calm     94 % 0.00 in
02:23 52.2 °F 50.5 °F 30.13 in Calm     94 % 0.00 in
02:29 52.2 °F 50.8 °F 30.13 in Calm     95 % 0.00 in
02:34 52.3 °F 50.9 °F 30.13 in Calm     95 % 0.00 in
02:39 52.4 °F 51.0 °F 30.13 in Calm   1.2 mph 95 % 0.00 in
02:44 52.4 °F 51.0 °F 30.13 in Calm     95 % 0.00 in
02:49 52.5 °F 51.1 °F 30.13 in Calm     95 % 0.00 in
02:54 52.5 °F 51.1 °F 30.13 in SE 0.4 mph 1.2 mph 95 % 0.00 in
02:59 52.4 °F 51.0 °F 30.13 in Calm     95 % 0.00 in
03:04 52.4 °F 51.0 °F 30.13 in Calm     95 % 0.00 in
03:09 52.4 °F 51.0 °F 30.12 in Calm     95 % 0.00 in
03:14 52.4 °F 51.0 °F 30.12 in Calm     95 % 0.00 in
03:20 52.3 °F 50.9 °F 30.12 in Calm     95 % 0.00 in
03:25 52.3 °F 50.9 °F 30.12 in Calm     95 % 0.00 in
03:30 52.3 °F 50.9 °F 30.12 in Calm     95 % 0.00 in
03:35 52.3 °F 50.9 °F 30.12 in SE 0.5 mph 1.2 mph 95 % 0.00 in
03:40 52.2 °F 50.8 °F 30.12 in Calm     95 % 0.00 in
03:45 52.2 °F 50.8 °F 30.12 in Calm     95 % 0.00 in
03:50 52.2 °F 50.8 °F 30.12 in Calm     95 % 0.00 in
03:55 52.1 °F 50.7 °F 30.11 in Calm     95 % 0.00 in
04:00 52.1 °F 50.7 °F 30.12 in Calm     95 % 0.00 in
04:05 52.1 °F 50.7 °F 30.12 in SE 0.2 mph 1.0 mph 95 % 0.00 in
04:11 52.1 °F 50.7 °F 30.12 in SE 0.1 mph 1.2 mph 95 % 0.00 in
04:16 52.1 °F 50.7 °F 30.12 in Calm   1.0 mph 95 % 0.00 in
04:21 52.1 °F 50.7 °F 30.12 in Calm     95 % 0.00 in
04:26 52.1 °F 50.7 °F 30.12 in Calm     95 % 0.00 in
04:31 52.1 °F 50.7 °F 30.12 in Calm     95 % 0.00 in
04:36 52.1 °F 50.7 °F 30.13 in Calm   1.0 mph 95 % 0.00 in
04:41 52.1 °F 50.7 °F 30.13 in Calm   1.0 mph 95 % 0.00 in
04:46 52.1 °F 50.7 °F 30.12 in Calm   1.0 mph 95 % 0.00 in
04:51 52.1 °F 50.8 °F 30.12 in Calm   1.0 mph 95 % 0.00 in
04:56 52.2 °F 51.1 °F 30.13 in Calm     96 % 0.00 in
05:01 52.1 °F 50.7 °F 30.13 in Calm     95 % 0.00 in
05:06 52.1 °F 50.7 °F 30.12 in Calm     95 % 0.00 in
05:11 52.1 °F 50.7 °F 30.12 in Calm     95 % 0.00 in
05:16 52.1 °F 50.7 °F 30.11 in Calm     95 % 0.00 in
05:21 52.0 °F 50.6 °F 30.11 in Calm     95 % 0.00 in
05:26 51.9 °F 50.5 °F 30.11 in Calm     95 % 0.00 in
05:31 51.9 °F 50.5 °F 30.11 in Calm     95 % 0.00 in
05:36 51.8 °F 50.4 °F 30.11 in Calm   1.2 mph 95 % 0.00 in
05:41 51.7 °F 50.3 °F 30.12 in SE 0.4 mph 1.2 mph 95 % 0.00 in
05:47 51.7 °F 50.3 °F 30.11 in Calm     95 % 0.00 in
05:52 51.8 °F 50.4 °F 30.11 in Calm     95 % 0.00 in
05:57 51.8 °F 50.4 °F 30.11 in Calm     95 % 0.00 in
06:02 51.8 °F 50.4 °F 30.11 in SE 0.2 mph 1.2 mph 95 % 0.00 in
06:07 51.8 °F 50.7 °F 30.11 in Calm     96 % 0.00 in
06:12 51.9 °F 50.8 °F 30.11 in Calm     96 % 0.00 in
06:17 51.9 °F 50.8 °F 30.11 in SE 0.1 mph 1.2 mph 96 % 0.00 in
06:22 52.0 °F 50.9 °F 30.11 in Calm     96 % 0.00 in
06:27 52.0 °F 50.9 °F 30.11 in Calm     96 % 0.00 in
06:32 52.1 °F 51.0 °F 30.11 in Calm     96 % 0.00 in
06:38 52.1 °F 51.0 °F 30.11 in Calm     96 % 0.00 in
06:43 52.2 °F 51.1 °F 30.11 in SE 0.1 mph 1.2 mph 96 % 0.00 in
06:48 52.3 °F 51.2 °F 30.11 in Calm     96 % 0.00 in
06:53 52.4 °F 51.3 °F 30.11 in Calm     96 % 0.00 in
06:58 52.4 °F 51.3 °F 30.11 in Calm     96 % 0.00 in
07:03 52.5 °F 51.4 °F 30.11 in Calm     96 % 0.00 in
07:08 52.6 °F 51.5 °F 30.11 in Calm     96 % 0.00 in
07:13 52.6 °F 51.5 °F 30.11 in Calm     96 % 0.00 in
07:18 52.6 °F 51.5 °F 30.11 in Calm     96 % 0.00 in
07:23 52.8 °F 51.7 °F 30.11 in Calm     96 % 0.00 in
07:29 52.8 °F 51.7 °F 30.11 in Calm     96 % 0.00 in
07:34 53.0 °F 51.9 °F 30.11 in Calm     96 % 0.00 in
07:39 53.2 °F 52.4 °F 30.10 in Calm     97 % 0.00 in
07:44 53.5 °F 52.7 °F 30.11 in Calm     97 % 0.00 in
07:49 53.7 °F 52.9 °F 30.11 in Calm     97 % 0.00 in
07:54 54.0 °F 53.2 °F 30.11 in Calm     97 % 0.00 in
07:59 54.2 °F 53.4 °F 30.11 in Calm     97 % 0.00 in
08:04 54.5 °F 53.7 °F 30.11 in Calm     97 % 0.00 in
08:09 54.7 °F 53.9 °F 30.11 in Calm     97 % 0.00 in
08:14 55.1 °F 54.3 °F 30.11 in Calm     97 % 0.00 in
08:20 55.4 °F 54.8 °F 30.11 in Calm     98 % 0.00 in
08:25 55.9 °F 55.3 °F 30.11 in Calm     98 % 0.00 in
08:30 56.2 °F 55.6 °F 30.10 in Calm     98 % 0.00 in
08:35 56.7 °F 56.1 °F 30.11 in Calm   1.2 mph 98 % 0.00 in
08:40 57.3 °F 56.7 °F 30.11 in Calm     98 % 0.00 in
08:45 57.7 °F 57.1 °F 30.11 in Calm     98 % 0.00 in
08:50 58.1 °F 57.5 °F 30.11 in Calm     98 % 0.00 in
08:55 58.5 °F 57.9 °F 30.11 in Calm     98 % 0.00 in
09:00 58.9 °F 58.3 °F 30.11 in Calm     98 % 0.00 in
09:05 59.2 °F 58.6 °F 30.10 in Calm     98 % 0.00 in
09:11 59.5 °F 58.9 °F 30.10 in Calm     98 % 0.00 in
09:16 59.8 °F 59.2 °F 30.10 in Calm     98 % 0.00 in
09:21 60.2 °F 59.6 °F 30.10 in Calm     98 % 0.00 in
09:26 60.6 °F 60.0 °F 30.10 in Calm     98 % 0.00 in
09:31 60.9 °F 60.3 °F 30.10 in Calm     98 % 0.00 in
09:36 61.1 °F 60.6 °F 30.10 in Calm     98 % 0.00 in
09:41 61.4 °F 60.8 °F 30.10 in Calm   1.0 mph 98 % 0.00 in
09:46 61.6 °F 61.1 °F 30.10 in Calm     98 % 0.00 in
09:51 61.9 °F 61.3 °F 30.10 in Calm     98 % 0.00 in
09:56 62.2 °F 61.6 °F 30.10 in Calm     98 % 0.00 in
10:01 62.3 °F 61.7 °F 30.09 in SE 0.3 mph 1.2 mph 98 % 0.00 in
10:06 62.4 °F 61.9 °F 30.09 in Calm   1.0 mph 98 % 0.00 in
10:11 62.7 °F 62.1 °F 30.09 in ESE 1.0 mph 3.0 mph 98 % 0.00 in
10:16 63.2 °F 62.6 °F 30.09 in Calm   1.2 mph 98 % 0.00 in
10:21 63.5 °F 62.6 °F 30.09 in NE 1.0 mph 4.0 mph 97 % 0.00 in
10:26 63.8 °F 62.6 °F 30.09 in NE 1.0 mph 3.0 mph 96 % 0.00 in
10:31 64.2 °F 62.4 °F 30.08 in ENE 1.3 mph 3.5 mph 94 % 0.00 in
10:36 64.5 °F 62.5 °F 30.08 in Calm   3.0 mph 93 % 0.00 in
10:41 64.9 °F 62.3 °F 30.08 in ENE 1.0 mph 3.0 mph 91 % 0.00 in
10:46 65.4 °F 62.4 °F 30.08 in NE 2.3 mph 3.5 mph 90 % 0.00 in
10:51 65.6 °F 62.0 °F 30.08 in NE 1.0 mph 4.0 mph 88 % 0.00 in
10:56 66.0 °F 62.6 °F 30.08 in NE 1.0 mph 4.0 mph 89 % 0.00 in
11:01 66.3 °F 62.6 °F 30.08 in Calm     88 % 0.00 in
11:06 66.6 °F 62.6 °F 30.08 in Calm   3.0 mph 87 % 0.00 in
11:11 66.8 °F 62.8 °F 30.07 in ENE 1.0 mph 2.0 mph 87 % 0.00 in
11:16 67.1 °F 62.8 °F 30.07 in Calm   1.2 mph 86 % 0.00 in
11:21 67.2 °F 62.9 °F 30.07 in Calm   1.0 mph 86 % 0.00 in
11:26 67.5 °F 63.1 °F 30.07 in Calm   1.0 mph 86 % 0.00 in
11:31 67.7 °F 63.0 °F 30.07 in Calm   3.0 mph 85 % 0.00 in
11:36 67.9 °F 63.6 °F 30.07 in Calm   2.0 mph 86 % 0.00 in
11:41 68.1 °F 63.8 °F 30.06 in Calm   4.0 mph 86 % 0.00 in
11:46 68.4 °F 64.1 °F 30.06 in ENE 2.0 mph 4.0 mph 86 % 0.00 in
11:50 68.8 °F 64.4 °F 30.06 in Calm   1.2 mph 86 % 0.00 in
11:56 69.2 °F 64.5 °F 30.06 in Calm   2.0 mph 85 % 0.00 in
12:01 69.5 °F 64.5 °F 30.07 in Calm   1.2 mph 84 % 0.00 in
12:06 69.8 °F 64.7 °F 30.06 in ENE 2.0 mph 4.0 mph 84 % 0.00 in
12:11 70.1 °F 65.4 °F 30.07 in ENE 1.0 mph 3.0 mph 85 % 0.00 in
12:16 70.3 °F 64.9 °F 30.07 in ENE 2.0 mph 4.0 mph 83 % 0.00 in
12:21 70.5 °F 65.4 °F 30.07 in ENE 1.0 mph 2.0 mph 84 % 0.00 in
12:26 70.5 °F 65.1 °F 30.07 in ENE 1.0 mph 5.0 mph 83 % 0.00 in
12:31 70.5 °F 65.0 °F 30.07 in NE 1.0 mph 3.0 mph 83 % 0.00 in
12:35 70.3 °F 64.9 °F 30.06 in ENE 0.3 mph 1.2 mph 83 % 0.00 in
12:41 70.2 °F 65.1 °F 30.06 in Calm   2.0 mph 84 % 0.00 in
12:46 70.0 °F 65.3 °F 30.06 in Calm   2.0 mph 85 % 0.00 in
12:51 69.9 °F 65.2 °F 30.06 in Calm   2.0 mph 85 % 0.00 in
12:56 69.7 °F 65.3 °F 30.06 in Calm   2.0 mph 86 % 0.00 in
13:01 69.4 °F 65.4 °F 30.05 in ENE 0.1 mph 1.0 mph 87 % 0.00 in
13:06 69.2 °F 65.2 °F 30.05 in Calm   1.0 mph 87 % 0.00 in
13:11 69.2 °F 65.5 °F 30.05 in Calm   1.0 mph 88 % 0.00 in
13:16 69.2 °F 65.8 °F 30.05 in Calm     89 % 0.00 in
13:21 69.2 °F 65.5 °F 30.05 in Calm   1.0 mph 88 % 0.00 in
13:26 69.1 °F 65.4 °F 30.05 in Calm   1.0 mph 88 % 0.00 in
13:31 69.0 °F 65.3 °F 30.05 in Calm   2.0 mph 88 % 0.00 in
13:35 68.9 °F 65.2 °F 30.05 in ENE 0.9 mph 3.0 mph 88 % 0.00 in
13:41 68.9 °F 65.2 °F 30.04 in Calm   1.0 mph 88 % 0.00 in
13:46 68.8 °F 65.4 °F 30.04 in Calm   1.0 mph 89 % 0.00 in
13:50 68.7 °F 65.3 °F 30.04 in ENE 0.1 mph 2.3 mph 89 % 0.00 in
13:56 68.7 °F 65.3 °F 30.04 in Calm   2.0 mph 89 % 0.00 in
14:01 68.7 °F 65.3 °F 30.04 in ENE 0.4 mph 1.2 mph 89 % 0.00 in
14:06 68.7 °F 65.3 °F 30.03 in Calm   2.0 mph 89 % 0.00 in
14:11 68.7 °F 65.3 °F 30.03 in Calm     89 % 0.00 in
14:16 68.7 °F 65.3 °F 30.03 in Calm     89 % 0.00 in
14:21 68.8 °F 65.7 °F 30.03 in Calm     90 % 0.00 in
14:26 68.8 °F 65.7 °F 30.03 in Calm     90 % 0.00 in
14:31 68.8 °F 65.7 °F 30.03 in Calm     90 % 0.00 in
14:36 68.9 °F 65.8 °F 30.02 in Calm     90 % 0.00 in
14:41 68.9 °F 65.8 °F 30.02 in Calm     90 % 0.00 in
14:46 69.0 °F 65.9 °F 30.03 in Calm     90 % 0.00 in
14:51 69.1 °F 66.0 °F 30.03 in Calm     90 % 0.00 in
14:56 69.2 °F 66.1 °F 30.03 in ENE 0.7 mph 2.3 mph 90 % 0.00 in
15:01 69.2 °F 66.1 °F 30.02 in Calm   1.2 mph 90 % 0.00 in
15:07 69.3 °F 66.2 °F 30.02 in Calm   2.3 mph 90 % 0.00 in
15:12 69.4 °F 66.7 °F 30.01 in Calm   1.2 mph 91 % 0.00 in
15:17 69.4 °F 66.7 °F 30.01 in Calm     91 % 0.00 in
15:22 69.5 °F 66.8 °F 30.00 in ENE 0.3 mph 1.2 mph 91 % 0.00 in
15:27 69.5 °F 66.4 °F 29.99 in NE 2.8 mph 3.5 mph 90 % 0.00 in
15:32 69.5 °F 66.4 °F 29.99 in NE 2.3 mph 3.5 mph 90 % 0.00 in
15:37 69.5 °F 66.4 °F 29.98 in NE 1.0 mph 3.5 mph 90 % 0.00 in
15:42 69.5 °F 66.4 °F 29.98 in NE 0.5 mph 1.2 mph 90 % 0.00 in
15:47 69.4 °F 66.3 °F 29.98 in NE 0.1 mph 2.3 mph 90 % 0.00 in
15:52 69.4 °F 66.7 °F 29.98 in Calm     91 % 0.00 in
15:58 69.4 °F 66.7 °F 29.99 in Calm   1.2 mph 91 % 0.00 in
16:03 69.4 °F 66.7 °F 29.99 in SE 0.8 mph 3.5 mph 91 % 0.00 in
16:08 69.4 °F 66.7 °F 29.99 in SE 0.2 mph 1.2 mph 91 % 0.00 in
16:13 69.3 °F 66.6 °F 29.99 in SE 1.0 mph 3.5 mph 91 % 0.00 in
16:18 69.3 °F 66.2 °F 29.99 in Calm   1.0 mph 90 % 0.00 in
16:23 69.3 °F 66.6 °F 29.99 in Calm   1.2 mph 91 % 0.00 in
16:28 69.3 °F 66.6 °F 29.99 in SSE 0.1 mph 1.2 mph 91 % 0.00 in
16:33 69.3 °F 66.6 °F 29.98 in Calm     91 % 0.00 in
16:38 69.2 °F 66.8 °F 29.97 in Calm     92 % 0.00 in
16:43 69.2 °F 66.8 °F 29.97 in Calm     92 % 0.00 in
16:49 69.2 °F 66.8 °F 29.96 in SSE 0.1 mph 1.2 mph 92 % 0.01 in
16:59 69.0 °F 66.6 °F 29.96 in Calm     92 % 0.01 in
17:04 69.0 °F 66.6 °F 29.95 in Calm     92 % 0.01 in
17:09 69.0 °F 66.6 °F 29.96 in Calm     92 % 0.01 in
17:14 69.0 °F 66.6 °F 29.96 in Calm     92 % 0.01 in
17:19 68.9 °F 66.5 °F 29.96 in Calm     92 % 0.01 in
17:24 68.8 °F 66.4 °F 29.97 in Calm     92 % 0.01 in
17:29 68.8 °F 66.7 °F 29.97 in East 0.7 mph 2.3 mph 93 % 0.01 in
17:34 68.7 °F 66.6 °F 29.98 in East 0.3 mph 1.0 mph 93 % 0.01 in
17:40 68.6 °F 66.5 °F 29.98 in Calm     93 % 0.01 in
17:45 68.6 °F 66.5 °F 29.98 in Calm     93 % 0.01 in
17:50 68.5 °F 66.4 °F 29.98 in Calm     93 % 0.00 in
17:55 68.4 °F 66.3 °F 29.99 in East 0.6 mph 2.0 mph 93 % 0.00 in
18:00 68.4 °F 66.3 °F 29.99 in Calm     93 % 0.00 in
18:05 68.3 °F 66.2 °F 29.99 in West 0.4 mph 2.0 mph 93 % 0.00 in
18:10 68.2 °F 66.1 °F 29.99 in West 0.2 mph 1.2 mph 93 % 0.00 in
18:15 68.2 °F 66.1 °F 29.99 in Calm     93 % 0.00 in
18:20 68.1 °F 66.0 °F 29.99 in Calm   1.2 mph 93 % 0.00 in
18:25 68.1 °F 66.3 °F 29.99 in Calm     94 % 0.00 in
18:31 68.0 °F 66.2 °F 29.99 in Calm   1.0 mph 94 % 0.00 in
18:36 67.9 °F 65.8 °F 29.99 in Calm     93 % 0.00 in
18:41 67.8 °F 65.7 °F 29.99 in Calm   1.0 mph 93 % 0.00 in
18:46 67.8 °F 66.0 °F 29.99 in Calm   2.0 mph 94 % 0.00 in
18:51 67.7 °F 65.9 °F 29.98 in Calm     94 % 0.00 in
18:56 67.7 °F 65.9 °F 29.99 in Calm     94 % 0.01 in
19:01 67.6 °F 65.8 °F 29.98 in Calm     94 % 0.01 in
19:06 67.6 °F 65.8 °F 29.99 in Calm     94 % 0.01 in
19:11 67.5 °F 65.7 °F 29.98 in Calm     94 % 0.01 in
19:16 67.4 °F 65.6 °F 29.98 in Calm     94 % 0.01 in
19:21 67.4 °F 65.6 °F 29.98 in Calm     94 % 0.02 in
19:26 67.4 °F 65.6 °F 29.98 in Calm     94 % 0.02 in
19:31 67.4 °F 65.6 °F 29.98 in Calm     94 % 0.02 in
19:36 67.4 °F 65.6 °F 29.98 in Calm     94 % 0.03 in
19:41 67.3 °F 65.5 °F 29.98 in Calm     94 % 0.03 in
19:46 67.3 °F 65.5 °F 29.98 in Calm     94 % 0.03 in
19:52 67.2 °F 65.4 °F 29.98 in Calm     94 % 0.03 in
19:57 67.2 °F 65.7 °F 29.98 in Calm     95 % 0.02 in
20:02 67.2 °F 65.7 °F 29.98 in Calm     95 % 0.02 in
20:07 67.1 °F 65.6 °F 29.98 in Calm     95 % 0.03 in
20:12 67.1 °F 65.6 °F 29.97 in Calm     95 % 0.03 in
20:17 67.0 °F 65.5 °F 29.97 in Calm     95 % 0.02 in
20:22 66.9 °F 65.4 °F 29.97 in Calm     95 % 0.02 in
20:27 66.9 °F 65.4 °F 29.97 in Calm     95 % 0.02 in
20:32 66.8 °F 65.3 °F 29.97 in Calm     95 % 0.03 in
20:37 66.7 °F 65.2 °F 29.98 in Calm     95 % 0.02 in
20:43 66.7 °F 65.2 °F 29.98 in Calm   1.2 mph 95 % 0.02 in
20:48 66.7 °F 65.2 °F 29.98 in West 0.1 mph 1.2 mph 95 % 0.03 in
20:53 66.6 °F 65.1 °F 29.98 in West 0.1 mph 1.0 mph 95 % 0.03 in
20:58 66.6 °F 65.1 °F 29.98 in West 0.1 mph 1.2 mph 95 % 0.03 in
21:03 66.6 °F 65.1 °F 29.98 in Calm     95 % 0.04 in
21:08 66.6 °F 65.1 °F 29.99 in Calm     95 % 0.03 in
21:13 66.6 °F 65.1 °F 29.98 in Calm     95 % 0.03 in
21:18 66.6 °F 65.1 °F 29.98 in Calm     95 % 0.03 in
21:23 66.7 °F 65.5 °F 29.97 in Calm     96 % 0.04 in
21:29 66.6 °F 65.4 °F 29.97 in Calm     96 % 0.03 in
21:39 66.6 °F 65.4 °F 29.97 in West 0.2 mph 1.2 mph 96 % 0.03 in
21:41 66.6 °F 65.4 °F 29.97 in West 1.0 mph 3.0 mph 96 % 0.01 in
21:46 66.5 °F 65.3 °F 29.97 in Calm   2.0 mph 96 % 0.00 in
21:51 66.5 °F 65.3 °F 29.97 in NW 1.0 mph 4.0 mph 96 % 0.00 in
21:56 66.5 °F 65.3 °F 29.97 in NW 0.3 mph 3.5 mph 96 % 0.03 in
22:01 66.5 °F 65.3 °F 29.97 in WNW 2.5 mph 3.5 mph 96 % 0.03 in
22:06 66.4 °F 65.2 °F 29.97 in NW 0.2 mph 3.5 mph 96 % 0.03 in
22:11 66.4 °F 65.2 °F 29.97 in Calm     96 % 0.03 in
22:16 66.3 °F 65.1 °F 29.97 in Calm     96 % 0.03 in
22:21 66.3 °F 65.1 °F 29.98 in Calm     96 % 0.02 in
22:26 66.2 °F 65.0 °F 29.97 in Calm     96 % 0.02 in
22:31 66.1 °F 64.9 °F 29.97 in Calm     96 % 0.03 in
22:36 66.1 °F 64.9 °F 29.97 in Calm     96 % 0.03 in
22:41 66.1 °F 64.9 °F 29.97 in Calm     96 % 0.02 in
22:47 66.1 °F 64.9 °F 29.97 in Calm   1.2 mph 96 % 0.03 in
22:52 66.0 °F 64.8 °F 29.98 in Calm   1.2 mph 96 % 0.03 in
22:57 66.0 °F 64.8 °F 29.97 in Calm     96 % 0.02 in
23:02 66.0 °F 64.8 °F 29.97 in NW 0.4 mph 2.3 mph 96 % 0.02 in
23:07 66.0 °F 64.8 °F 29.96 in Calm     96 % 0.02 in
23:12 66.0 °F 64.8 °F 29.96 in NW 0.5 mph 2.0 mph 96 % 0.02 in
23:17 65.9 °F 64.7 °F 29.96 in Calm   1.2 mph 96 % 0.02 in
23:22 65.9 °F 64.7 °F 29.95 in NW 1.8 mph 3.5 mph 96 % 0.03 in
23:27 65.9 °F 64.7 °F 29.95 in NW 0.9 mph 2.3 mph 96 % 0.03 in
23:32 65.9 °F 64.7 °F 29.95 in NNW 1.5 mph 3.5 mph 96 % 0.02 in
23:37 65.9 °F 64.7 °F 29.95 in North 2.2 mph 4.6 mph 96 % 0.02 in
23:42 65.8 °F 64.6 °F 29.95 in North 1.5 mph 3.5 mph 96 % 0.01 in
23:48 65.8 °F 64.6 °F 29.95 in North 0.3 mph 2.3 mph 96 % 0.01 in
23:53 65.8 °F 64.6 °F 29.95 in Calm   2.3 mph 96 % 0.01 in
23:58 65.7 °F 64.5 °F 29.96 in Calm     96 % 0.01 in
Crab Meadow Weather
Compliments of Weather Underground - 3 mb

Script developed by  Jim McMurry - jmcmurry@mwt.net Adapted for the template by  Wim van der Kuil - Leuven-Template.eu

Dew Point: The dew point is the temperature to which air must be cooled, at constant barometric pressure, for water vapor to condense into water. The condensed water is called dew. When the dew point temperature falls below freezing it is called the frost point, as the water no longer creates dew but instead creates frost. The dew point is associated with relative humidity. A high relative humidity indicates that the dew point is closer to the current air temperature. If the relative humidity is 100%, the dew point is equal to the current temperature. Given a constant dew point, an increase in temperature will lead to a decrease in relative humidity.